Change the Weather History Date:

Saturday, March 9, 2013

  Actual Average Record
Temperature  
Mean Temperature 35 °F -  
Max Temperature 37 °F 43 °F 59 °F (2014)
Min Temperature 33 °F 38 °F 33 °F (2013)
Degree Days  
Heating Degree Days 30    
Moisture  
Dew Point 33 °F    
Average Humidity 94    
Maximum Humidity 100    
Minimum Humidity 87    
Precipitation  
Precipitation 0.00 in - - ()
Sea Level Pressure  
Sea Level Pressure 29.53 in    
Wind  
Wind Speed 25 mph ()    
Max Wind Speed 31 mph    
Max Gust Speed -    
Visibility 3.9 miles    
Events Rain , Snow    
Averages and records for this station are not official NWS values.
T = Trace of Precipitation, MM = Missing Value Source: Averaged Metar Reports

Daily Weather History Graph

Daily Weather History Graph

Search for Another Location

Airport or City:

Trip Planner

Search our weather history database for the weather conditions in past years. The results will help you decide how hot, cold, wet, or windy it might be!

Date:

Astronomy

Mar. 09, 2013 Rise Set
Actual Time 7:08 AM CET 6:33 PM CET
Civil Twilight 6:34 AM CET 7:08 PM CET
Nautical Twilight 5:54 AM CET 7:48 PM CET
Astronomical Twilight 5:13 AM CET 8:29 PM CET
Moon 5:39 AM CET (3/9) 4:04 PM CET (3/9)
Length of Visible Light 12h 33m
Length of Day
11h 24m
Waning Crescent, 7% of the Moon is Illuminated
Mar 9
Waning Crescent
Mar 11
New
Mar 19
First Quarter
Mar 27
Full
Apr 3
Last Quarter

Hourly Weather History & Observations

Time (CET) Temp. Windchill Dew Point Humidity Pressure Visibility Wind Dir Wind Speed Gust Speed Precip Events Conditions
12:25 AM 37.4 °F 26.1 °F 33.8 °F 87% 29.56 in 3.7 mi East 24.2 mph - N/A   Overcast
12:55 AM 37.4 °F 26.4 °F 33.8 °F 87% 29.56 in 3.7 mi East 23.0 mph - N/A   Overcast
1:25 AM 37.4 °F 26.6 °F 33.8 °F 87% 29.56 in 3.7 mi East 21.9 mph - N/A   Overcast
1:55 AM 37.4 °F 26.4 °F 33.8 °F 87% 29.53 in 4.3 mi East 23.0 mph - N/A   Overcast
2:25 AM 35.6 °F 23.7 °F 33.8 °F 93% 29.53 in 4.3 mi East 24.2 mph - N/A   Overcast
2:55 AM 35.6 °F 23.2 °F 32.0 °F 87% 29.53 in 3.7 mi East 26.5 mph - N/A   Drizzle
3:25 AM 35.6 °F 23.0 °F 32.0 °F 87% 29.53 in 3.7 mi East 27.6 mph - N/A   Overcast
3:35 AM 35.6 °F 23.4 °F 32.0 °F 87% 29.53 in - East 25.3 mph - N/A Rain Light Rain
3:55 AM 35.6 °F 23.2 °F 32.0 °F 87% 29.53 in - East 26.5 mph - N/A   Light Drizzle
4:25 AM 35.6 °F 23.4 °F 32.0 °F 87% 29.53 in - East 25.3 mph - N/A   Light Drizzle
4:55 AM 35.6 °F 23.7 °F 33.8 °F 93% 29.50 in 1.6 mi East 24.2 mph - N/A Rain Light Rain Showers
5:25 AM 35.6 °F 23.2 °F 33.8 °F 93% 29.50 in - East 26.5 mph - N/A Rain Light Rain
5:55 AM 35.6 °F 23.4 °F 33.8 °F 93% 29.50 in 1.7 mi East 25.3 mph - N/A Rain Rain
6:25 AM 35.6 °F 23.4 °F 33.8 °F 93% 29.50 in 1.7 mi East 25.3 mph - N/A   Drizzle
6:32 AM 35.6 °F 23.2 °F 33.8 °F 93% 29.50 in 1.7 mi East 26.5 mph - N/A Rain Light Rain
6:33 AM 35.6 °F 23.2 °F 33.8 °F 93% 29.50 in 1.8 mi East 26.5 mph - N/A Rain Rain
6:55 AM 33.8 °F 20.5 °F 33.8 °F 100% 29.50 in - East 27.6 mph - N/A Rain Light Rain
7:00 AM 33.8 °F 20.5 °F 33.8 °F 100% 29.50 in - East 27.6 mph - N/A Rain Light Rain
7:03 AM 33.8 °F 20.5 °F 33.8 °F 100% 29.50 in - East 27.6 mph - N/A Rain Light Rain
7:11 AM 33.8 °F 20.5 °F 33.8 °F 100% 29.50 in 2.2 mi East 27.6 mph - N/A Rain Light Rain
7:15 AM 33.8 °F 20.5 °F 33.8 °F 100% 29.50 in - East 27.6 mph - N/A Rain Light Rain
7:25 AM 33.8 °F 20.5 °F 33.8 °F 100% 29.50 in - East 27.6 mph - N/A Rain Light Rain
7:29 AM 33.8 °F 20.5 °F 33.8 °F 100% 29.50 in 1.7 mi East 27.6 mph - N/A Rain Light Rain
7:55 AM 33.8 °F 20.3 °F 33.8 °F 100% 29.50 in 1.5 mi East 28.8 mph - N/A Rain Light Rain
8:08 AM 33.8 °F 20.3 °F 33.8 °F 100% 29.50 in 1.8 mi East 28.8 mph - N/A Rain Light Rain Showers
8:12 AM 33.8 °F 20.1 °F 33.8 °F 100% 29.50 in - East 29.9 mph - N/A Rain Light Rain
8:25 AM 33.8 °F 20.3 °F 33.8 °F 100% 29.50 in - East 28.8 mph - N/A Rain Light Rain Showers
8:29 AM 33.8 °F 20.3 °F 33.8 °F 100% 29.50 in - East 28.8 mph - N/A Rain Light Rain
8:36 AM 33.8 °F 19.9 °F 33.8 °F 100% 29.50 in - East 31.1 mph - N/A Rain Light Rain
8:39 AM 33.8 °F 20.1 °F 33.8 °F 100% 29.50 in - East 29.9 mph - N/A Rain Light Rain
8:51 AM 33.8 °F 20.1 °F 33.8 °F 100% 29.50 in 2.5 mi East 29.9 mph - N/A Rain Light Rain
8:55 AM 33.8 °F 19.9 °F 33.8 °F 100% 29.50 in 2.5 mi East 31.1 mph - N/A Rain Light Rain
8:59 AM 33.8 °F 19.9 °F 33.8 °F 100% 29.50 in - East 31.1 mph - N/A Rain Light Rain
9:02 AM 33.8 °F 20.1 °F 33.8 °F 100% 29.50 in - East 29.9 mph - N/A Rain Light Rain
9:07 AM 33.8 °F 20.1 °F 33.8 °F 100% 29.50 in - East 29.9 mph - N/A Rain Light Rain
9:11 AM 33.8 °F 20.1 °F 33.8 °F 100% 29.50 in - East 29.9 mph - N/A Rain Light Rain
9:15 AM 33.8 °F 20.1 °F 33.8 °F 100% 29.50 in - East 29.9 mph - N/A Rain Light Rain
9:25 AM 33.8 °F 20.1 °F 33.8 °F 100% 29.50 in - East 29.9 mph - N/A Rain Light Rain
9:30 AM 33.8 °F 20.1 °F 33.8 °F 100% 29.50 in - East 29.9 mph - N/A Rain Light Rain
9:40 AM 35.6 °F 22.3 °F 33.8 °F 93% 29.50 in - East 31.1 mph - N/A   Overcast
9:55 AM 35.6 °F 22.7 °F 33.8 °F 93% 29.50 in - East 28.8 mph - N/A Rain Rain
10:21 AM 35.6 °F 22.3 °F 33.8 °F 93% 29.50 in 3.1 mi East 31.1 mph - N/A Rain , Snow Light Rain
10:25 AM 35.6 °F 22.5 °F 33.8 °F 93% 29.50 in 3.1 mi East 29.9 mph - N/A   Light Drizzle
10:55 AM 35.6 °F 22.5 °F 33.8 °F 93% 29.53 in 3.7 mi East 29.9 mph - N/A   Light Drizzle
11:25 AM 35.6 °F 23.0 °F 33.8 °F 93% 29.53 in 3.7 mi East 27.6 mph - N/A   Drizzle
11:55 AM 35.6 °F 22.7 °F 33.8 °F 93% 29.53 in 5.0 mi East 28.8 mph - N/A   Light Drizzle
12:05 PM 35.6 °F 23.0 °F 33.8 °F 93% 29.53 in 5.0 mi East 27.6 mph - N/A   Light Drizzle
12:14 PM 35.6 °F 22.7 °F 33.8 °F 93% 29.53 in 4.3 mi East 28.8 mph - N/A   Light Drizzle
12:25 PM 35.6 °F 23.0 °F 33.8 °F 93% 29.53 in 4.3 mi East 27.6 mph - N/A   Drizzle
12:32 PM 35.6 °F 23.2 °F 33.8 °F 93% 29.53 in 3.7 mi East 26.5 mph - N/A Rain Light Rain
12:45 PM 35.6 °F 23.0 °F 33.8 °F 93% 29.53 in - East 27.6 mph - N/A Rain Light Rain
12:48 PM 35.6 °F 23.0 °F 33.8 °F 93% 29.53 in 2.8 mi East 27.6 mph - N/A Rain Light Rain
12:55 PM 35.6 °F 22.7 °F 33.8 °F 93% 29.53 in 3.1 mi East 28.8 mph - N/A Rain Light Rain
1:06 PM 35.6 °F 23.0 °F 33.8 °F 93% 29.53 in 3.7 mi East 27.6 mph - N/A Rain Light Rain
1:18 PM 35.6 °F 23.2 °F 33.8 °F 93% 29.53 in 3.7 mi East 26.5 mph - N/A Rain Light Rain
1:25 PM 35.6 °F 23.2 °F 33.8 °F 93% 29.53 in 3.7 mi East 26.5 mph - N/A Rain Light Rain
1:26 PM 35.6 °F 23.4 °F 33.8 °F 93% 29.53 in 3.1 mi East 25.3 mph - N/A Rain Light Rain
1:55 PM 35.6 °F 23.4 °F 33.8 °F 93% 29.53 in 5.0 mi East 25.3 mph - N/A   Drizzle
2:25 PM 35.6 °F 23.2 °F 33.8 °F 93% 29.53 in 4.3 mi East 26.5 mph - N/A   Drizzle
2:42 PM 35.6 °F 23.4 °F 33.8 °F 93% 29.53 in 5.6 mi East 25.3 mph - N/A   Drizzle
2:55 PM 35.6 °F 23.4 °F 33.8 °F 93% 29.53 in 5.6 mi East 25.3 mph - N/A   Drizzle
3:25 PM 35.6 °F 23.7 °F 33.8 °F 93% 29.53 in 5.0 mi East 24.2 mph - N/A Rain Rain
3:29 PM 35.6 °F 23.7 °F 33.8 °F 93% 29.53 in 5.0 mi ENE 24.2 mph - N/A Rain Light Rain
3:39 PM 35.6 °F 24.0 °F 33.8 °F 93% 29.53 in 5.6 mi ENE 23.0 mph - N/A Rain Light Rain
3:55 PM 35.6 °F 24.0 °F 33.8 °F 93% 29.53 in 4.3 mi ENE 23.0 mph - N/A Rain Light Rain
3:59 PM 35.6 °F 24.0 °F 33.8 °F 93% 29.53 in 4.3 mi ENE 23.0 mph - N/A Rain Light Rain
4:00 PM 35.6 °F 23.7 °F 33.8 °F 93% 29.53 in 4.3 mi ENE 24.2 mph - N/A Rain Light Rain
4:08 PM 35.6 °F 23.7 °F 33.8 °F 93% 29.53 in 4.3 mi ENE 24.2 mph - N/A Rain Light Rain
4:25 PM 35.6 °F 23.2 °F 33.8 °F 93% 29.53 in 4.3 mi ENE 26.5 mph - N/A Rain Light Rain
4:55 PM 33.8 °F 21.3 °F 33.8 °F 100% 29.53 in 5.6 mi East 24.2 mph - N/A Rain Light Rain
5:01 PM 35.6 °F 23.4 °F 33.8 °F 93% 29.53 in 4.3 mi East 25.3 mph - N/A Rain Light Rain
5:25 PM 33.8 °F 21.0 °F 32.0 °F 93% 29.53 in 5.6 mi East 25.3 mph - N/A Rain Light Rain
5:55 PM 33.8 °F 21.0 °F 32.0 °F 93% 29.53 in 5.6 mi East 25.3 mph - N/A Rain Light Rain
6:17 PM 33.8 °F 21.0 °F 32.0 °F 93% 29.53 in 5.6 mi ENE 25.3 mph - N/A Rain Light Rain
6:25 PM 33.8 °F 21.6 °F 32.0 °F 93% 29.53 in 5.0 mi ENE 23.0 mph - N/A Rain Light Rain
6:55 PM 33.8 °F 21.0 °F 32.0 °F 93% 29.53 in 5.6 mi ENE 25.3 mph - N/A Rain Light Rain
7:11 PM 33.8 °F 21.0 °F 32.0 °F 93% 29.56 in 4.3 mi ENE 25.3 mph - N/A Rain Light Rain
7:25 PM 33.8 °F 20.8 °F 32.0 °F 93% 29.56 in 5.6 mi ENE 26.5 mph - N/A   Drizzle
7:43 PM 33.8 °F 21.6 °F 32.0 °F 93% 29.56 in 4.3 mi ENE 23.0 mph - N/A   Small Hail
7:44 PM 33.8 °F 21.3 °F 32.0 °F 93% 29.56 in 3.7 mi ENE 24.2 mph - N/A Rain Rain
7:55 PM 33.8 °F 21.0 °F 32.0 °F 93% 29.56 in 3.1 mi ENE 25.3 mph - N/A Snow Light Snow
7:59 PM 33.8 °F 21.0 °F 32.0 °F 93% 29.56 in 3.1 mi ENE 25.3 mph - N/A Rain Rain
8:11 PM 33.8 °F 21.3 °F 32.0 °F 93% 29.56 in 3.7 mi ENE 24.2 mph - N/A Rain Rain
8:25 PM 33.8 °F 21.0 °F 32.0 °F 93% 29.56 in 3.7 mi ENE 25.3 mph - N/A Snow Light Snow
8:32 PM 33.8 °F 21.0 °F 32.0 °F 93% 29.56 in 3.7 mi ENE 25.3 mph - N/A Snow Light Snow
8:45 PM 33.8 °F 21.3 °F 32.0 °F 93% 29.56 in 3.7 mi ENE 24.2 mph - N/A   Mostly Cloudy
8:46 PM 33.8 °F 21.3 °F 32.0 °F 93% 29.56 in 3.7 mi ENE 24.2 mph - N/A   Mostly Cloudy
8:55 PM 33.8 °F 21.3 °F 32.0 °F 93% 29.56 in 3.7 mi ENE 24.2 mph - N/A   Mostly Cloudy
9:00 PM 33.8 °F 21.3 °F 32.0 °F 93% 29.56 in 3.7 mi ENE 24.2 mph - N/A   Mostly Cloudy
9:04 PM 33.8 °F 21.3 °F 32.0 °F 93% 29.56 in 4.3 mi ENE 24.2 mph - N/A Rain Light Rain
9:25 PM 33.8 °F 21.3 °F 32.0 °F 93% 29.56 in 3.7 mi ENE 24.2 mph - N/A   Overcast
9:47 PM 33.8 °F 21.9 °F 32.0 °F 93% 29.56 in 3.7 mi ENE 21.9 mph - N/A Rain Light Rain
9:55 PM 33.8 °F 21.6 °F 32.0 °F 93% 29.56 in 3.7 mi ENE 23.0 mph - N/A   Mostly Cloudy
9:59 PM 33.8 °F 21.6 °F 32.0 °F 93% 29.56 in 3.7 mi ENE 23.0 mph - N/A   Overcast
10:13 PM 33.8 °F 21.9 °F 32.0 °F 93% 29.56 in 3.7 mi ENE 21.9 mph - N/A Snow Light Snow
10:25 PM 33.8 °F 21.6 °F 32.0 °F 93% 29.56 in 4.3 mi ENE 23.0 mph - N/A   Overcast
10:55 PM 33.8 °F 21.6 °F 32.0 °F 93% 29.56 in 3.7 mi ENE 23.0 mph - N/A   Overcast
11:18 PM 33.8 °F 21.6 °F 32.0 °F 93% 29.56 in 5.6 mi ENE 23.0 mph - N/A   Mostly Cloudy
11:25 PM 33.8 °F 22.2 °F 32.0 °F 93% 29.56 in 5.6 mi ENE 20.7 mph - N/A   Drizzle
11:55 PM 33.8 °F 22.2 °F 32.0 °F 93% 29.56 in 6.2 mi ENE 20.7 mph - N/A   Mostly Cloudy